N1BSO Weather Reports


time (UTC)temp
C
wind
direction
speed
KPH
gust
KPH
rain 1hr
cm
rain 24hr
cm
rain mn
cm
humidity
%
barometer
mb
20260505091600 10 196 3.2 12.9 0.00 0.00 0.00 91 1010.6
20260505090109 10 263 1.6 11.3 0.00 0.00 0.00 90 1010.8
20260505084601 9 15 3.2 9.7 0.00 0.00 0.00 91 1010.7
20260505083057 9 184 3.2 9.7 0.00 0.00 0.00 90 1010.6
20260505081604 9 0 1.6 8.0 0.00 0.00 0.00 90 1010.7
20260505080059 9 275 1.6 8.0 0.00 0.00 0.00 89 1010.7
20260505074610 9 0 0.0 8.0 0.00 0.00 0.00 88 1010.7
20260505073100 9 202 1.6 4.8 0.00 0.00 0.00 88 1010.9
20260505071600 10 0 1.6 4.8 0.00 0.00 0.00 87 1010.8
20260505070055 10 0 0.0 3.2 0.00 0.00 0.00 86 1010.8
20260505064559 10 238 0.0 6.4 0.00 0.00 0.00 86 1010.9
20260505063058 10 232 1.6 4.8 0.00 0.00 0.00 85 1011.0
20260505061624 10 169 0.0 8.0 0.00 0.00 0.00 84 1010.9
20260505060100 10 256 1.6 6.4 0.00 0.00 0.00 83 1011.0
20260505054616 11 0 0.0 12.9 0.00 0.00 0.00 82 1011.0
20260505053057 11 304 3.2 17.7 0.00 0.00 0.00 82 1010.8
20260505051558 11 319 3.2 11.3 0.00 0.00 0.00 82 1010.9
20260505041555 11 292 3.2 12.9 0.00 0.00 0.00 79 1011.2
20260505040100 11 238 4.8 16.1 0.00 0.00 0.00 78 1011.0
20260505034557 11 194 3.2 12.9 0.00 0.00 0.00 78 1011.2
20260505033055 11 211 4.8 11.3 0.00 0.00 0.00 78 1011.0
20260505031601 11 267 3.2 14.5 0.00 0.00 0.00 77 1011.2
20260505030059 11 163 6.4 19.3 0.00 0.00 0.00 76 1011.4
20260505024608 11 65 4.8 14.5 0.00 0.00 0.00 76 1011.3
20260505023057 12 217 3.2 24.1 0.00 0.00 0.00 75 1011.3
20260505021612 12 213 3.2 17.7 0.00 0.00 0.00 75 1011.3
20260505020055 12 273 0.0 16.1 0.00 0.00 0.00 74 1011.3
20260505014555 12 15 3.2 19.3 0.00 0.00 0.00 73 1011.3
20260505013057 12 194 4.8 17.7 0.00 0.00 0.00 72 1011.1
20260505011558 12 178 4.8 17.7 0.00 0.00 0.00 71 1010.9
20260505010057 13 199 4.8 17.7 0.00 0.00 0.00 69 1010.7
20260505004557 13 54 4.8 22.5 0.00 0.00 0.00 67 1010.2
20260505003058 13 297 4.8 14.5 0.00 0.00 0.00 65 1009.9
20260505001557 13 193 6.4 14.5 0.00 0.00 0.00 61 1009.8
20260505000059 14 171 4.8 20.9 0.00 0.00 0.00 59 1009.5
20260504234602 15 298 8.0 24.1 0.00 0.00 0.00 57 1009.4
20260504233107 15 261 9.7 32.2 0.00 0.00 0.00 54 1009.1
20260504231608 15 198 6.4 27.4 0.00 0.00 0.00 54 1008.9
20260504230111 16 202 4.8 20.9 0.00 0.00 0.00 52 1008.7
20260504224604 16 173 8.0 17.7 0.00 0.00 0.00 50 1008.3
20260504223104 17 169 6.4 20.9 0.00 0.00 0.00 49 1008.2
20260504221609 17 197 11.3 27.4 0.00 0.00 0.00 49 1008.0
20260504220136 18 304 11.3 35.4 0.00 0.00 0.00 47 1008.0
20260504214555 18 311 6.4 29.0 0.00 0.00 0.00 46 1008.1
20260504213126 18 208 11.3 24.1 0.00 0.00 0.00 45 1007.9
20260504211608 19 225 9.7 30.6 0.00 0.00 0.00 43 1007.9
20260504210101 19 184 9.7 24.1 0.00 0.00 0.00 42 1007.7
20260504204609 20 194 9.7 25.7 0.00 0.00 0.00 40 1007.8
20260504203056 20 308 8.0 33.8 0.00 0.00 0.00 39 1007.5
20260504201609 20 225 12.9 22.5 0.00 0.00 0.00 39 1007.6
20260504200107 20 182 8.0 30.6 0.00 0.00 0.00 37 1007.6
20260504194555 20 150 9.7 29.0 0.00 0.00 0.00 37 1007.8
20260504193055 21 185 9.7 33.8 0.00 0.00 0.00 38 1007.4
20260504191555 20 315 11.3 30.6 0.00 0.00 0.00 38 1007.3
20260504190054 21 211 4.8 27.4 0.00 0.00 0.00 36 1007.8
20260504184600 21 260 9.7 30.6 0.00 0.00 0.00 34 1007.6
20260504183104 21 325 12.9 40.2 0.00 0.00 0.00 32 1007.6
20260504181559 21 321 12.9 32.2 0.00 0.00 0.00 32 1008.0
20260504180055 21 294 14.5 32.2 0.00 0.00 0.00 33 1007.9
20260504174556 20 234 9.7 22.5 0.00 0.00 0.00 34 1007.9
20260504173059 20 246 12.9 33.8 0.00 0.00 0.00 32 1007.7
20260504171557 20 308 9.7 29.0 0.00 0.00 0.00 35 1007.7
20260504140104 17 298 3.2 19.3 0.00 0.00 0.00 46 1010.3